This is the latest recevied weather packets stored in our database for station/object KN6CW-3. If no packets are shown the sender has not sent any weather packets the latest 10 day(s).
| Time | Temp. | Humidity | Pressure | Rain* | Wind** | Luminosity | Snow |
|---|---|---|---|---|---|---|---|
| 1778171225 | 12.22° C | 48% | 1010.8 hPa | 0 mm | - | 956 W/m² | - |
| 1778170925 | 12.22° C | 47% | 1010.8 hPa | 0 mm | - | 953 W/m² | - |
| 1778170625 | 12.22° C | 49% | 1010.9 hPa | 0 mm | - | 940 W/m² | - |
| 1778170324 | 12.22° C | 48% | 1010.9 hPa | 0 mm | - | 937 W/m² | - |
| 1778170024 | 12.22° C | 48% | 1010.9 hPa | 0 mm | - | 935 W/m² | - |
| 1778169724 | 12.22° C | 47% | 1011 hPa | 0 mm | - | 933 W/m² | - |
| 1778169423 | 12.22° C | 48% | 1011.1 hPa | 0 mm | - | 923 W/m² | - |
| 1778169123 | 12.22° C | 46% | 1011.1 hPa | 0 mm | - | 916 W/m² | - |
| 1778168823 | 12.22° C | 47% | 1011.2 hPa | 0 mm | - | 912 W/m² | - |
| 1778168522 | 11.67° C | 50% | 1011.2 hPa | 0 mm | - | 914 W/m² | - |
| 1778168222 | 11.11° C | 48% | 1011.2 hPa | 0 mm | - | 902 W/m² | - |
| 1778167922 | 11.67° C | 51% | 1011.3 hPa | 0 mm | - | 900 W/m² | - |
| 1778167622 | 11.11° C | 51% | 1011.4 hPa | 0 mm | - | 888 W/m² | - |
| 1778167321 | 11.11° C | 52% | 1011.6 hPa | 0 mm | - | 882 W/m² | - |
| 1778167021 | 11.11° C | 52% | 1011.7 hPa | 0 mm | - | 874 W/m² | - |
| 1778166721 | 11.11° C | 55% | 1011.7 hPa | 0 mm | - | 863 W/m² | - |
| 1778166420 | 11.11° C | 52% | 1011.8 hPa | 0 mm | - | 856 W/m² | - |
| 1778166120 | 10.56° C | 54% | 1011.8 hPa | 0 mm | - | 847 W/m² | - |
| 1778165820 | 10.56° C | 53% | 1011.8 hPa | 0 mm | - | 837 W/m² | - |
| 1778165520 | 10.56° C | 55% | 1012 hPa | 0 mm | - | 731 W/m² | - |
| 1778165222 | 10.56° C | 57% | 1011.9 hPa | 0 mm | - | 817 W/m² | - |
| 1778164919 | 10° C | 54% | 1012 hPa | 0 mm | - | 807 W/m² | - |
| 1778164619 | 10° C | 56% | 1012 hPa | 0 mm | - | 796 W/m² | - |
| 1778164318 | 10° C | 60% | 1011.9 hPa | 0 mm | - | 786 W/m² | - |
| 1778164018 | 10° C | 57% | 1012 hPa | 0 mm | - | 779 W/m² | - |
* Rain latest hour (hover to see other rain measurements)
** Current wind speed in m/s (hover to see current wind gust speed)